Regional Weather Roundup
Issued by NWS

Home | Current Version | Previous Version | Text Only | Print | Product List | Glossary Off
Versions: 1 2 3 4 5 6 7 8 9 10 11 12 13 14 15 16 17 18 19 20 21 22 23 24 25 26 27 28 29 30 31 32 33 34 35 36 37 38 39 40 41 42 43 44 45 46 47 48 49 50

000
ASUS43 KLOT 140758
RWRIL

ILLINOIS REGIONAL WEATHER ROUNDUP
NATIONAL WEATHER SERVICE CHICAGO/ROMEOVILLE IL
300 AM CDT MON JUL 14 2014

NOTE: "FAIR" INDICATES FEW OR NO CLOUDS BELOW 12,000 FEET WITH NO
SIGNIFICANT WEATHER AND/OR OBSTRUCTIONS TO VISIBILITY.

* THESE STATIONS ARE NOT UNDER NWS QUALITY CONTROL. THEY ALSO MAY NOT
  REPORT WEATHER SUCH AS PRECIPITATION OR FOG.

ILZ001-002-007-009-015-016-024-140900-
NORTHWEST ILLINOIS

CITY           SKY/WX    TMP DP  RH WIND       PRES   REMARKS
MOLINE         PTCLDY    65  62  90 CALM      29.89F
$$

ILZ003-004-008-010-011-017-018-140900-
NORTH CENTRAL ILLINOIS

CITY           SKY/WX    TMP DP  RH WIND       PRES   REMARKS
ROCKFORD       NOT AVBL
$$

ILZ005-006-012>014-019>023-140900-
NORTHEAST ILLINOIS

CITY           SKY/WX    TMP DP  RH WIND       PRES   REMARKS
CHICAGO-OHARE  PTCLDY    65  52  62 CALM      29.88F
CHICAGO-MIDWAY PTCLDY    69  56  62 CALM      29.89F
AURORA         CLEAR     61  58  90 CALM      29.90F
WAUKEGAN       CLEAR     59  57  93 CALM      29.88F FOG
DUPAGE AIRPORT CLEAR     63  55  75 CALM      29.89F
WHEELING       CLEAR     65  55  70 CALM      29.89F
NORTHERLY ISL    N/A     68  54  60 CALM        N/A
$$

LMZ740>746-140900-
SOUTHERN LAKE MICHIGAN

STATION/POSITION SKY/WX   TEMP    WIND        PRES    VSBY  WAVE
                          AIR SEA DIR/SP/G                  HT/PER
                          (F)     (DEG/KT/KT) (MB)    (MI)  (FT/S)
SOUTHERN BUOY              66 64  300/  6/  8 1011.7F         1
WAUKEGAN HARBOR            68     290/  4/  7 1013.5S
HARRISON CRIB              70     300/ 10/ 10   N/A
BURNHAM HARBOR             70     280/  1/ 10   N/A
CALUMET HARBOR             70     310/  2/  5 1012.9F
BURNS HARBOR               71     320/ 11/ 14 1012.9
MICHIGAN CITY              71     260/ 13/ 15   N/A
$$

ILZ025>027-034>036-040-047-049-050-058-095>099-140900-
WEST-CENTRAL ILLINOIS

CITY           SKY/WX    TMP DP  RH WIND       PRES   REMARKS
$$

ILZ028>032-037-038-041>044-048-051>054-059>061-140900-
CENTRAL ILLINOIS

CITY           SKY/WX    TMP DP  RH WIND       PRES   REMARKS
PEORIA         NOT AVBL
SPRINGFIELD    MOCLDY    69  67  93 CALM      29.91F FOG
TAYLORVILLE    NOT AVBL
$$

ILZ033-039-045-046-055>057-062-063-140900-
EAST-CENTRAL ILLINOIS

CITY           SKY/WX    TMP DP  RH WIND       PRES   REMARKS
CHAMPAIGN      CLOUDY    70  67  90 NW3       29.92S
MATTOON        CLOUDY    72  69  90 NW6       29.91F
$$

ILZ079-100>102-140900-
SOUTHWEST ILLINOIS

CITY           SKY/WX    TMP DP  RH WIND       PRES   REMARKS
BELLEVILLE     CLOUDY    73  73 100 SW3       29.92S
$$

ILZ064>066-069>071-074>076-080>082-084>086-088>090-092>094-140900-
SOUTH-CENTRAL ILLINOIS

CITY           SKY/WX    TMP DP  RH WIND       PRES   REMARKS
CARBONDALE     LGT RAIN  71  69  93 SW6       29.93F
$$

ILZ067-068-072-073-078-083-087-091-140900-
SOUTHEAST ILLINOIS

CITY           SKY/WX    TMP DP  RH WIND       PRES   REMARKS
$$

ABBREVIATIONS USED IN REMARKS
   TC - TEMPERATURE IN CELSIUS
  WCI - WIND CHILL INDEX
   HX - HEAT INDEX
  VSB - VISIBILITY
$$




USA.gov is the U.S. government's official web portal to all federal, state and local government web resources and services.